User: anonymous   Login
Location: Goheenville
(40.9070°N, 79.3720°W)
Time: 03:08:02
(UTC-04:00)
Language:

Cosmos 1727 Rocket - Orbit

View from above orbital plane
View from above orbital plane
View from above satellite
View from above satellite

Ground track
Ground track

The orbit data is extracted from the following two-line orbital elements,

1 16511U 86008B   17233.91358514 -.00000001 +00000-0 -17555-4 0  9998
2 16511 082.9468 171.1818 0025580 098.2300 322.9775 13.75813455585052
Epoch (UTC): 21 August 2017 21:55:33
Eccentricity: 0.0025580
inclination: 82.9468°
perigee height: 960 km
apogee height: 997 km
right ascension of ascending node: 171.1818°
argument of perigee: 98.2300°
revolutions per day: 13.75813455
mean anomaly at epoch: 322.9775°
orbit number at epoch: 58505

The dashed part of the orbit path shows where the satellite is in the earth's shadow,  

DLR